Погода в Славгороде

Погода в Славгороде : погода сейчас, прогноз погоды и архив. Всё, что Вы хотите узнать о погоде в Славгороде!

Хотите узнать прогноз погоды в Славгороде? Тогда Вам сюда: Погода в Славгороде

Поиск расширенной информации на нашем сайте:

Другие новости

Новости СМИ2

Главная страница сайта

Новости сайта

03.07.2017

Напоминаем, что на нашем специализированном сайте Метеоцентр.Азия вы можете получить высокодетализированные автоматические прогнозы погоды по пунктам России, СНГ и мира в авиационном формате (включающие направление и скорость ветра, видимость, явления погоды, количество и форму облачности, нижнюю и верхнюю границу облачности).

Рекомендуем: Блок излучения купить аппарат лазерной терапии УзорМед.

Погода в Славгороде - сегодня

Время (UTC), дата Ветер
(°,м/с) 
Видим.   Явления Облачность Т
(°С)
Тd
(°С)
f(%) Тe
(°С)
Pmin
(гПа)
dP
(гПа)
Po
(мм)
O2
(г/м3)
Тmin Tmax R s Состояние
почвы
00 19.09.17 270 (З) 20000 м    10/10 720 м кучево-дожд. 
[Cb cap]
+8.5 +5.4 81 +8  1012.8  0.7  748  291  +6.5        сухая 
03 19.09.17 290 (З) 20000 м    9/4 600 м кучево-дожд., средняя 
[Cb cap|Ac trans]
+10.7 +6.9 77 +10  1013.8  1.1  749  289           
06 19.09.17 320 (СЗ) 7-11{13}  20000 м    8/8 660 м кучево-дожд. 
[Cb cap]
+13 +5 58 +12  1015.4  1.7  750  288           
09 19.09.17 320 (СЗ) 5{15}  20000 м  в посл. час ливневой дождь  8/6 630 м кучево-дожд., средняя 
[Cb cap|Ac trans]
+14 +5.1 55 +13  1016.5  1.2  751  287           
12 19.09.17 320 (СЗ) 5-10{14}  20000 м  {ливн. осадки}  10/10 800 м 
[Sc]
+12.4 +3.5 55 +12  1018.4  1.8  752  289    +14.9  0.0     
15 19.09.17 310 (СЗ) 4{10}  20000 м    10/10 1020 м 
[Sc]
+11.2 +3.8 60 +10  1020.7  2.1  754  291           
18 19.09.17 300 (СЗ) 20000 м    10/10 960 м 
[Sc]
+10.1 +3.2 62 +10  1021.8  755  293           
21 19.09.17 290 (З) 20000 м    10/10 960 м 
[Sc]
+9.5 +3.2 65 +10  1022.4  0.7  755  294           
00 20.09.17 280 (З) 20000 м    10/10 930 м 
[Sc]
+8.8 +3.2 68 +9  1023.4  0.9  756  295  +8.8        сухая 
03 20.09.17 280 (З) 20000 м    10/10 960 м 
[Sc]
+10 +3.8 65 +10  1023.9  0.5  756  293  +8.3         
06 20.09.17 250 (З) 20000 м    10/8 1080 м верхняя 
[Sc|Ci sp]
+14.1 +1.7 43 +14  1022.7  -1  756  289           
09 20.09.17 230 (ЮЗ) 20000 м  слаб. ливневой дождь  10/10 630 м кучево-дожд. 
[Cb cap]
+11.3 +6.3 71 +11  1021.5  -1.2  755  291           
12 20.09.17 150 (ЮВ) 20000 м  {ливн. осадки}  10/10 660 м кучево-дожд. 
[Cb cap]
+11.6 +5.2 65 +11  1019  -2.5  753  290    +15  0.0     
15 20.09.17 180 (Ю) 5{10}  20000 м  слаб. ливневой дождь  10/10 600 м кучево-дожд. 
[Cb cap]
+11.2 +7.3 77 +10  1016.6  -2.4  751  289           
18 20.09.17 170 (Ю) 20000 м  гроза, ливневой дождь  10/10 600 м кучево-дожд. 
[Cb cap]
+11.1 +8.4 83 +10  1013.2  -3.3  749  288           
21 20.09.17 190 (Ю) 20000 м  {гроза, ливн. осадки}  4/4 600 м кучево-дожд. 
[Cb cap]
+12.3 +9.2 81 +12  1009.4  -3.8  746  286           
00 21.09.17 290 (З) 20000 м  {гроза, ливн. осадки}  10/10 630 м кучево-дожд. 
[Cb cap]
+13.7 +9.9 78 +14  1009.3  0.1  746  284  +10.8      влажная 
03 21.09.17 280 (З) 20000 м  в посл. час ливневой дождь  10/10 630 м кучево-дожд. 
[Cb cap]
+13.2 +10.9 86 +15  1009.6  0.2  746  285           
06 21.09.17 280 (З) 6-10{10}  20000 м  {ливн. осадки}  3/0 верхняя 
[Ci sp]
+18 +10.1 60 +19  1009.5  0.2  746  280           
09 21.09.17 320 (СЗ) 7-12{13}  20000 м    8/8 660 м 
[Cu med, cong]
+18.3 +7.4 49 +18  1009.1  -0.4  746  280           
12 21.09.17 330 (СЗ) 7-11{14}  20000 м    6/6 660 м кучево-дожд. 
[Cb cap]
+13.5 +6.5 63 +12  1011.1  1.7  747  286    +19.2  0.0     
15 21.09.17 340 (С) 5{12}  20000 м    8/0 средняя 
[Ac trans]
+10.7 +5.5 70 +10  1012.3  748  289           
18 21.09.17 330 (СЗ) 2{10}  20000 м    ясно 
+7.4 +4.6 82 +7  1013  0.6  748  293           
21 21.09.17 330 (СЗ) 20000 м    8/8 660 м кучево-дожд. 
[Cb cap]
+7.5 +4.7 82 +6  1014.1  749  293           
00 22.09.17 320 (СЗ) 20000 м    10/10 600 м кучево-дожд. 
[Cb cap]
+6.5 +4.8 89 +6  1015.1  750  294  +5.6        сухая 
Время (UTC), дата Ветер
(°,м/с) 
Видим.   Явления Облачность Т
(°С)
Тd
(°С)
f(%) Тe
(°С)
Pmin
(гПа)
dP
(гПа)
Po
(мм)
O2
(г/м3)
Тmin Tmax R s Состояние
почвы

Для получения пояснительной информации подведите курсор к названию столбца.

ПОГОДА в Славгороде - архив

Всё, что Вы хотите узнать о погоде в Славгороде - удобно и подробно!

Выберите нужную дату (начиная с 1 января 2015* года) и нажмите кнопку "Найти".
Будут отображены архивные сводки погоды по пункту Славгород, начиная с указанной даты.


Отображать данные в формате CSV (для использования в таблицах Excel)


Внимание! Наш архив погоды предназначен исключительно для личного некоммерческого использования в познавательных целях. Если Вам необходимы официальные справки о состоянии погоды (для производственных, юридических, коммерческих и т.п. целей), обращайтесь в органы Росгидромета.

*Примечание: данная дата относится к архиву по метеостанциям СССР (Россия, СНГ, Балтия).
Архив по метеостанциям Зарубежной Европы и Азии (кроме Китая) хранится 10 дней, по другим регионам земного шара (Китай, Африка, Америка, Австралия, Океания) - 1 день.

Славгород - район местоположения метеостанции


Название, широта, долгота, высота метеостанции:
Славгород 53°ш. 78.6°д. 126 м над ур. моря [Российская Федерация]

Дополнительная информация

В oтличие oт бoльшинства пoгoдных сайтoв мы публикуем пoдрoбную метеoинфoрмацию в детальнoм прoфессиoнальнoм фoрмате.

Характеристики температуры и влажнoсти вoздуха измеряются на высoте 2 м в тени вдали oт зданий и деревьев.
Скoрoсть ветра измеряется на высoте 10 м (на урoвне рoста челoвека скoрoсть ветра ниже в 1.5-2 раза). Если метеoстанция нахoдится в гoрoде или в лесу, тo скoрoсть ветра занижена на 2-4 м/с пo сравнению с oткрытым местoм. Скoрoсть ветра над акватoриями крупных рек и oзёр, а также на вершинах хoлмoв на 2-5 м/с выше, чем в oбычных услoвиях.
Атмoсфернoе давление в разных тoчках местнoсти мoжет значительнo oтличаться oт давления на метеoстанции, в зависимoсти oт услoвий рельефа (при пoдъёме на 10 м давление пoнижается примернo на 1 мм рт.ст.).